Bloomington, IN

3:24 AM EDT on September 16, 2019 (GMT -0400)
Monroe County

Weather History for KBMG - August, 2019

Change the Weather History Date:

Monday, August 19, 2019

  Actual Average Record
Temperature  
Mean Temperature 79 °F 73 °F  
Max Temperature 91 °F 85 °F 92 °F (2010)
Min Temperature 67 °F 61 °F 51 °F (2003)
Degree Days  
Heating Degree Days 0 0  
Month to date heating degree days 0 0  
Since 1 June heating degree days 14 17  
Since 1 July heating degree days 0 2  
Cooling Degree Days 14 8  
Month to date cooling degree days 183 167  
Year to date cooling degree days 890 733  
Since 1 June cooling degree days 759 651  
Growing Degree Days 28 (Base 50)    
Moisture  
Dew Point 70 °F    
Average Humidity 76    
Maximum Humidity 100    
Minimum Humidity 52    
Precipitation  
Precipitation 0.01 in 0.12 in 0.43 in (2002)
Month to date precipitation 1.30 2.01  
Year to date precipitation 33.34 31.68  
Sea Level Pressure  
Sea Level Pressure 30.00 in    
Wind  
Wind Speed 3 mph (SW)    
Max Wind Speed 12 mph    
Max Gust Speed 14 mph    
Visibility 10 miles    
Events Rain , Thunderstorm    
T = Trace of Precipitation, MM = Missing Value Source: NWS Daily Summary

Daily Weather History Graph

Daily Weather History Graph

Search for Another Location

Airport or City:

Astronomy

Aug. 19, 2019 Rise Set
Actual Time 7:03 AM EDT 8:36 PM EDT
Civil Twilight 6:34 AM EDT 9:04 PM EDT
Nautical Twilight 6:00 AM EDT 9:38 PM EDT
Astronomical Twilight 5:24 AM EDT 10:14 PM EDT
Moon 10:59 PM EDT (8/19) 10:42 AM EDT (8/19)
Length of Visible Light 14h 29m
Length of Day
13h 33m
Waning Gibbous, 85% of the Moon is Illuminated
Aug 19
Waning Gibbous
Aug 23
Last Quarter
Aug 30
New
Sep 5
First Quarter
Sep 14
Full

Hourly Weather History & Observations

Time (EDT) Temp. Heat Index Dew Point Humidity Pressure Visibility Wind Dir Wind Speed Gust Speed Precip Events Conditions
12:15 AM 70.0 °F - 69.1 °F 97% 29.99 in 8.0 mi Variable 3.5 mph - 0.02 in Rain , Thunderstorm Light Thunderstorms and Rain
12:30 AM 70.0 °F - 69.1 °F 97% 30.00 in 10.0 mi East 6.9 mph - 0.02 in Rain , Thunderstorm Light Rain
12:49 AM 69.8 °F - 69.8 °F 100% 30.00 in 10.0 mi ENE 3.5 mph - 0.02 in Thunderstorm Thunderstorm
12:53 AM 70.0 °F - 70.0 °F 100% 29.98 in 10.0 mi East 3.5 mph - 0.02 in Thunderstorm Thunderstorm
1:29 AM 70.0 °F - 70.0 °F 100% 29.99 in 10.0 mi Calm Calm - 0.00 in Rain , Thunderstorm Light Rain
1:42 AM 70.0 °F - 69.1 °F 97% 29.99 in 10.0 mi Calm Calm - 0.00 in   Scattered Clouds
1:53 AM 69.1 °F - 69.1 °F 100% 29.96 in 10.0 mi SSE 3.5 mph - 0.00 in   Partly Cloudy
2:53 AM 69.1 °F - 69.1 °F 100% 29.96 in 10.0 mi Calm Calm - 0.01 in   Partly Cloudy
3:53 AM 69.1 °F - 69.1 °F 100% 29.96 in 10.0 mi SSE 5.8 mph - N/A   Partly Cloudy
4:53 AM 69.1 °F - 66.9 °F 93% 29.96 in 10.0 mi SSE 10.4 mph - N/A   Clear
5:53 AM 66.9 °F - 66.9 °F 100% 29.97 in 10.0 mi Calm Calm - N/A   Clear
6:53 AM 68.0 °F - 66.9 °F 96% 29.99 in 10.0 mi Calm Calm - N/A   Clear
7:53 AM 69.1 °F - 68.0 °F 96% 30.01 in 10.0 mi Calm Calm - N/A   Clear
8:53 AM 73.9 °F - 70.0 °F 87% 30.01 in 10.0 mi SSW 3.5 mph - N/A   Clear
9:53 AM 77.0 °F - 73.0 °F 88% 30.02 in 10.0 mi West 3.5 mph - N/A   Clear
10:53 AM 80.1 °F 84.5 °F 73.9 °F 81% 30.03 in 10.0 mi West 4.6 mph - N/A   Clear
11:53 AM 84.0 °F 90.2 °F 73.0 °F 69% 30.03 in 10.0 mi WSW 3.5 mph - N/A   Clear
12:53 PM 87.1 °F 92.8 °F 71.1 °F 59% 30.03 in 10.0 mi Calm Calm - N/A   Partly Cloudy
1:53 PM 88.0 °F 93.8 °F 71.1 °F 57% 30.02 in 10.0 mi Calm Calm - N/A   Partly Cloudy
2:53 PM 88.0 °F 92.9 °F 70.0 °F 55% 30.01 in 10.0 mi Variable 3.5 mph - N/A   Mostly Cloudy
3:53 PM 90.0 °F 96.4 °F 71.1 °F 54% 30.00 in 10.0 mi Variable 4.6 mph - N/A   Partly Cloudy
4:53 PM 90.0 °F 95.4 °F 70.0 °F 52% 29.99 in 10.0 mi WSW 4.6 mph - N/A   Partly Cloudy
5:53 PM 89.1 °F 95.0 °F 71.1 °F 55% 29.98 in 10.0 mi Variable 3.5 mph - N/A   Clear
6:53 PM 87.1 °F 93.6 °F 72.0 °F 61% 29.98 in 10.0 mi NW 3.5 mph - N/A   Clear
7:53 PM 80.1 °F 85.1 °F 75.0 °F 85% 29.99 in 10.0 mi WNW 3.5 mph - N/A   Clear
8:53 PM 77.0 °F - 73.9 °F 90% 30.00 in 10.0 mi Calm Calm - N/A   Clear
9:53 PM 75.0 °F - 72.0 °F 90% 30.02 in 9.0 mi SW 3.5 mph - N/A   Clear
10:53 PM 73.9 °F - 72.0 °F 93% 30.02 in 10.0 mi Calm Calm - N/A   Clear
11:53 PM 73.0 °F - 71.1 °F 93% 30.02 in 7.0 mi Calm Calm - N/A   Clear